EW3148 Weather Reports


Display with metric or nautical units.
time (UTC)temp
F
wind
direction
speed
MPH
gust
MPH
rain 1hr
in
rain 24hr
in
rain mn
in
humidity
%
barometer
mb
20260506060736 76 198 6.0 14.0 0.00 0.00 0.00 88 1005.7
20260506050354 76 175 6.0 16.0 0.00 0.00 0.00 87 1005.8
20260506044348 76 171 7.0 17.0 0.00 0.00 0.00 87 1005.8
20260506043343 76 173 5.0 15.0 0.00 0.00 0.00 88 1005.8
20260506041214 77 188 4.0 11.0 0.00 0.00 0.00 88 1005.6
20260506040158 77 178 4.0 10.0 0.00 0.00 0.00 87 1005.6
20260506035201 77 165 4.0 10.0 0.00 0.00 0.00 87 1005.3
20260506034133 77 180 4.0 10.0 0.00 0.00 0.00 87 1005.3
20260506033150 77 154 4.0 10.0 0.00 0.00 0.00 87 1005.2
20260506031110 77 175 4.0 12.0 0.00 0.00 0.00 85 1005.0
20260506030111 77 148 4.0 12.0 0.00 0.00 0.00 85 1004.8
20260506025039 78 182 4.0 9.0 0.00 0.00 0.00 84 1004.8
20260506024027 78 217 4.0 11.0 0.00 0.00 0.00 84 1004.6
20260506022956 78 175 4.0 11.0 0.00 0.00 0.00 83 1004.4
20260506021954 78 159 3.0 8.0 0.00 0.00 0.00 82 1004.2
20260506020928 78 161 3.0 8.0 0.00 0.00 0.00 82 1004.0
20260506015938 79 128 3.0 9.0 0.00 0.00 0.00 81 1003.8
20260506014953 79 126 3.0 9.0 0.00 0.00 0.00 81 1003.8
20260506014006 79 171 3.0 8.0 0.00 0.00 0.00 80 1003.7
20260506012957 80 149 2.0 7.0 0.00 0.00 0.00 80 1003.7
20260506011937 80 143 2.0 5.0 0.00 0.00 0.00 79 1003.6
20260506010953 81 143 2.0 5.0 0.00 0.00 0.00 78 1003.8
20260506005952 81 161 2.0 4.0 0.00 0.00 0.00 76 1003.7
20260506004924 82 137 0.0 4.0 0.00 0.00 0.00 75 1003.8
20260506003927 82 147 1.0 7.0 0.00 0.00 0.00 75 1003.7
20260506002906 82 184 2.0 7.0 0.00 0.00 0.00 74 1003.6
20260506001837 82 150 2.0 8.0 0.00 0.00 0.00 73 1003.6
20260506000834 83 178 3.0 9.0 0.00 0.00 0.00 73 1003.6
20260505235816 83 189 3.0 10.0 0.00 0.00 0.00 73 1003.4
20260505234837 83 164 3.0 10.0 0.00 0.00 0.00 72 1003.3
20260505233816 83 181 3.0 13.0 0.00 0.00 0.00 71 1003.1
20260505232800 83 207 4.0 13.0 0.00 0.00 0.00 70 1003.2
20260505230608 83 213 2.0 10.0 0.00 0.00 0.00 71 1003.3
20260505225551 83 244 3.0 16.0 0.00 0.00 0.00 70 1003.2
20260505224515 84 155 4.0 16.0 0.00 0.00 0.00 70 1003.2
20260505223512 84 188 4.0 13.0 0.00 0.00 0.00 69 1003.1
20260505222527 84 127 3.0 13.0 0.00 0.00 0.00 68 1003.1
20260505221516 85 195 3.0 12.0 0.00 0.00 0.00 67 1003.1
20260505220529 85 209 5.0 13.0 0.00 0.00 0.00 68 1003.1
20260505213222 86 213 3.0 12.0 0.00 0.00 0.00 67 1003.6
20260505212216 85 190 4.0 12.0 0.00 0.00 0.00 68 1003.7
20260505211232 85 196 4.0 11.0 0.00 0.00 0.00 66 1003.7
20260505210229 86 167 4.0 11.0 0.00 0.00 0.00 67 1003.9
20260505204023 85 207 5.0 14.0 0.00 0.00 0.00 68 1004.2
20260505203002 85 173 4.0 13.0 0.00 0.00 0.00 69 1004.5
20260505202004 85 252 5.0 12.0 0.00 0.00 0.00 68 1004.7
20260505201009 84 219 3.0 16.0 0.00 0.00 0.00 70 1004.8
20260505195956 84 156 5.0 16.0 0.00 0.00 0.00 68 1004.8
20260505193743 83 205 4.0 12.0 0.00 0.00 0.00 69 1005.0
20260505192729 84 213 5.0 13.0 0.00 0.00 0.00 71 1005.1
20260505191743 85 228 4.0 13.0 0.00 0.00 0.00 68 1005.1
20260505190717 83 178 4.0 12.0 0.00 0.00 0.00 71 1005.2
20260505184521 82 198 3.0 8.0 0.00 0.00 0.00 71 1005.5
20260505183534 82 221 3.0 13.0 0.00 0.00 0.00 73 1005.6
20260505182507 81 159 4.0 16.0 0.00 0.00 0.00 74 1005.8
20260505181458 80 219 3.0 16.0 0.00 0.00 0.00 77 1005.9
20260505180512 78 206 3.0 10.0 0.00 0.00 0.00 79 1006.0
20260505175500 77 241 3.0 7.0 0.00 0.00 0.00 81 1006.2
20260505174514 77 225 3.0 9.0 0.00 0.00 0.00 81 1006.3
20260505173534 76 217 2.0 9.0 0.00 0.00 0.00 82 1006.4
20260505172531 76 231 2.0 8.0 0.00 0.00 0.00 84 1006.7
20260505171458 75 222 3.0 9.0 0.00 0.00 0.00 83 1006.6
20260505170516 75 193 2.0 10.0 0.00 0.00 0.00 84 1006.6
20260505165525 75 234 2.0 10.0 0.00 0.00 0.00 85 1006.6
20260505163406 74 255 2.0 8.0 0.00 0.00 0.00 86 1006.6
20260505162336 73 219 1.0 6.0 0.00 0.00 0.00 87 1006.5
20260505161343 73 221 2.0 7.0 0.00 0.00 0.00 88 1006.7
20260505153114 72 197 2.0 9.0 0.00 0.00 0.00 89 1006.6
20260505152126 72 234 3.0 9.0 0.00 0.00 0.00 89 1006.4
20260505125009 70 205 3.0 10.0 0.00 0.00 0.00 90 1005.4
20260505124021 70 202 3.0 10.0 0.00 0.00 0.00 90 1005.2
20260505123018 70 188 3.0 10.0 0.00 0.00 0.00 90 1005.2
20260505121957 70 180 3.0 10.0 0.00 0.00 0.00 90 1005.0
20260505121019 70 176 4.0 14.0 0.00 0.00 0.00 90 1005.0
20260505120008 70 207 3.0 14.0 0.00 0.00 0.00 90 1005.0
20260505115008 70 209 3.0 10.0 0.00 0.00 0.00 90 1004.9
20260505113939 70 244 2.0 8.0 0.00 0.00 0.00 90 1004.7
20260505113004 70 209 4.0 13.0 0.00 0.00 0.00 90 1004.7
20260505111953 70 187 4.0 14.0 0.00 0.00 0.00 90 1004.9
20260505110926 70 205 2.0 11.0 0.00 0.00 0.00 90 1004.9
20260505101957 70 180 4.0 14.0 0.00 0.00 0.00 90 1005.1
20260505100925 70 190 4.0 14.0 0.00 0.00 0.00 90 1005.0
20260505095906 70 217 4.0 14.0 0.00 0.00 0.00 89 1005.2
20260505094848 70 171 5.0 14.0 0.00 0.00 0.00 89 1005.1
20260505093829 70 207 4.0 14.0 0.00 0.00 0.00 89 1005.0
20260505092831 70 186 5.0 21.0 0.00 0.00 0.00 89 1005.1
20260505090713 70 182 4.0 17.0 0.00 0.00 0.00 88 1005.1
20260505085715 70 202 5.0 20.0 0.00 0.00 0.00 88 1005.1
20260505084720 70 195 5.0 20.0 0.00 0.00 0.00 88 1005.3
20260505083740 70 192 5.0 13.0 0.00 0.00 0.00 88 1005.3
20260505082747 70 202 5.0 20.0 0.00 0.00 0.00 89 1005.3
20260505081747 70 184 4.0 20.0 0.00 0.00 0.00 89 1005.6
20260505080754 70 174 6.0 22.0 0.00 0.00 0.00 89 1005.8
20260505075741 70 232 5.0 22.0 0.00 0.00 0.00 88 1005.7
20260505074804 70 186 4.0 17.0 0.00 0.00 0.00 88 1005.8
20260505072613 70 192 6.0 19.0 0.00 0.00 0.00 87 1006.2
20260505071541 70 202 5.0 19.0 0.00 0.00 0.00 87 1006.2
20260505070602 70 215 7.0 19.0 0.00 0.00 0.00 86 1006.3
20260505065553 71 204 6.0 19.0 0.00 0.00 0.00 86 1006.4
20260505064543 71 207 7.0 18.0 0.00 0.00 0.00 86 1006.6
20260505063554 71 196 5.0 17.0 0.00 0.00 0.00 86 1006.7
20260505062600 71 225 5.0 17.0 0.00 0.00 0.00 86 1006.9
20260505061601 71 193 6.0 17.0 0.00 0.00 0.00 86 1007.0